Main page
METAR-TAF:

METAR-TAF

Airports :

Alpine–Casparis Municipal Airport

Alpine, Texas, United States

latitude: 30-23-03N, longitude: 103-41-00W, elevation: 1376 m

Current weather observation

The report was made 13 minutes ago, at 03:15 UTC
Calm wind
Temperature 28°C
Humidity 20%
Pressure 1015 hPa
Visibility: 16.1 km
Clear sky

METAR: KE38 270315Z AUTO 00000KT 10SM CLR 28/03 A2996 RMK AO2 T02790030

Time: 22:28 (03:28 UTC)


TAF: missing

Weather observations and forecasts of more than 4000 airports (METAR and TAF reports).

The available stations are represented by yellow and red dots on the map.

Hover mouse over dot to see the name of the station.

Then click to see weather observations and forecasts.

To change the map : click on the green buttons with a black cross to zoom in, on the green button with a dash to zoom out, or on the green arrows for adjacent maps.


METAR-TAF: